This is the latest recevied weather packets stored in our database for station/object N4PWG. If no packets are shown the sender has not sent any weather packets the latest 10 day(s).
| Time | Temp. | Humidity | Pressure | Rain* | Wind** | Luminosity | Snow |
|---|---|---|---|---|---|---|---|
| 1777819833 | 16.67° C | 58% | 1038.9 hPa | 0 mm | - | 487 W/m² | - |
| 1777819531 | 16.67° C | 60% | 1039.1 hPa | 0 mm | - | 480 W/m² | - |
| 1777819228 | 16.67° C | 61% | 1039.3 hPa | 0 mm | - | 458 W/m² | - |
| 1777818925 | 15.56° C | 61% | 1038.9 hPa | 0 mm | - | 423 W/m² | - |
| 1777818621 | 15.56° C | 61% | 1038.8 hPa | 0 mm | - | 435 W/m² | - |
| 1777818319 | 15.56° C | 67% | 1038.9 hPa | 0 mm | - | 421 W/m² | - |
| 1777818015 | 15° C | 69% | 1038.8 hPa | 0 mm | - | 399 W/m² | - |
| 1777817712 | 14.44° C | 67% | 1039.1 hPa | 0 mm | - | 379 W/m² | - |
| 1777817409 | 14.44° C | 72% | 1038.8 hPa | 0 mm | - | 373 W/m² | - |
| 1777817105 | 13.89° C | 73% | 1039.1 hPa | 0 mm | - | 376 W/m² | - |
| 1777816802 | 13.89° C | 72% | 1038.9 hPa | 0 mm | - | 358 W/m² | - |
| 1777816500 | 13.89° C | 76% | 1039.1 hPa | 0 mm | - | 328 W/m² | - |
| 1777816197 | 13.33° C | 75% | 1039.2 hPa | 0 mm | - | 356 W/m² | - |
| 1777815895 | 13.33° C | 76% | 1039.2 hPa | 0 mm | - | 321 W/m² | - |
| 1777815591 | 12.78° C | 78% | 1039.3 hPa | 0 mm | - | 322 W/m² | - |
| 1777815289 | 12.22° C | 81% | 1039.1 hPa | 0 mm | - | 271 W/m² | - |
| 1777814985 | 11.67° C | 80% | 1039.4 hPa | 0 mm | - | 235 W/m² | - |
| 1777814682 | 11.67° C | 82% | 1039.3 hPa | 0 mm | - | 252 W/m² | - |
| 1777814378 | 11.11° C | 82% | 1039.1 hPa | 0 mm | - | 242 W/m² | - |
| 1777814076 | 10.56° C | 86% | 1038.9 hPa | 0 mm | - | 195 W/m² | - |
| 1777813772 | 10° C | 90% | 1039.2 hPa | 0 mm | - | 106 W/m² | - |
| 1777813470 | 10° C | 94% | 1039.2 hPa | 0 mm | - | 99 W/m² | - |
| 1777813167 | 8.89° C | 96% | 1039.1 hPa | 0 mm | - | 87 W/m² | - |
| 1777812860 | 8.89° C | 98% | 1039.2 hPa | 0 mm | - | 80 W/m² | - |
| 1777812556 | 8.33° C | 99% | 1038.9 hPa | 0 mm | - | 75 W/m² | - |
* Rain latest hour (hover to see other rain measurements)
** Current wind speed in m/s (hover to see current wind gust speed)